Time,TemperatureF,DewpointF,PressureIn,WindDirection,WindDirectionDegrees,WindSpeedMPH,WindSpeedGustMPH,Humidity,HourlyPrecipIn,Conditions,Clouds,dailyrainin,SoftwareType,DateUTC
2014-01-05 00:02:00,13.9,8.0,30.00,South,174,0.0,0.0,77,0.00,,,0.00,vanprod-2.5-rc3,2014-01-05 07:02:00,
2014-01-05 00:07:00,13.7,7.6,30.00,South,174,0.0,0.0,76,0.00,,,0.00,vanprod-2.5-rc3,2014-01-05 07:07:00,
2014-01-05 00:12:00,13.4,7.3,30.00,South,174,0.0,0.0,76,0.00,,,0.00,vanprod-2.5-rc3,2014-01-05 07:12:00,
2014-01-05 00:17:00,12.9,6.8,30.00,South,174,0.0,0.0,76,0.00,,,0.00,vanprod-2.5-rc3,2014-01-05 07:17:00,
2014-01-05 00:22:00,12.5,6.4,30.00,South,174,0.0,0.0,76,0.00,,,0.00,vanprod-2.5-rc3,2014-01-05 07:22:00,
2014-01-05 00:27:00,12.2,6.1,30.00,South,174,0.0,0.0,76,0.00,,,0.00,vanprod-2.5-rc3,2014-01-05 07:27:00,
2014-01-05 00:32:00,11.8,5.7,30.00,South,174,0.0,0.0,76,0.00,,,0.00,vanprod-2.5-rc3,2014-01-05 07:32:00,
2014-01-05 00:37:00,11.5,5.4,30.00,South,174,0.0,0.0,76,0.00,,,0.00,vanprod-2.5-rc3,2014-01-05 07:37:00,
2014-01-05 00:42:00,11.3,5.8,30.00,South,174,0.0,0.0,78,0.00,,,0.00,vanprod-2.5-rc3,2014-01-05 07:42:00,
2014-01-05 00:47:00,11.4,6.2,29.99,South,175,0.0,0.0,79,0.00,,,0.00,vanprod-2.5-rc3,2014-01-05 07:47:00,
2014-01-05 00:52:00,11.7,6.7,29.99,South,176,0.0,0.0,80,0.00,,,0.00,vanprod-2.5-rc3,2014-01-05 07:52:00,
2014-01-05 00:57:00,11.9,6.9,30.00,South,176,0.0,0.0,80,0.00,,,0.00,vanprod-2.5-rc3,2014-01-05 07:57:00,
2014-01-05 01:02:00,12.2,7.5,30.00,South,176,0.0,0.0,81,0.00,,,0.00,vanprod-2.5-rc3,2014-01-05 08:02:00,
2014-01-05 01:07:00,12.4,7.4,30.00,South,176,0.0,0.0,80,0.00,,,0.00,vanprod-2.5-rc3,2014-01-05 08:07:00,
2014-01-05 01:12:00,12.6,7.6,30.01,South,176,0.0,0.0,80,0.00,,,0.00,vanprod-2.5-rc3,2014-01-05 08:12:00,
2014-01-05 01:17:00,12.8,7.8,30.00,South,176,0.0,0.0,80,0.00,,,0.00,vanprod-2.5-rc3,2014-01-05 08:17:00,
2014-01-05 01:22:00,13.0,7.7,30.01,South,176,0.0,0.0,79,0.00,,,0.00,vanprod-2.5-rc3,2014-01-05 08:22:00,
2014-01-05 01:27:00,13.1,7.8,30.01,South,176,0.0,0.0,79,0.00,,,0.00,vanprod-2.5-rc3,2014-01-05 08:27:00,
2014-01-05 01:32:00,13.2,7.9,30.01,South,176,0.0,0.0,79,0.00,,,0.00,vanprod-2.5-rc3,2014-01-05 08:32:00,
2014-01-05 01:37:00,13.3,8.0,30.01,South,177,0.0,0.0,79,0.00,,,0.00,vanprod-2.5-rc3,2014-01-05 08:37:00,
2014-01-05 01:42:00,13.4,8.1,30.02,South,178,0.0,0.0,79,0.00,,,0.00,vanprod-2.5-rc3,2014-01-05 08:42:00,
2014-01-05 01:47:00,13.4,8.1,30.02,South,191,0.0,0.0,79,0.00,,,0.00,vanprod-2.5-rc3,2014-01-05 08:47:00,
2014-01-05 01:52:00,13.5,8.2,30.02,South,191,0.0,0.0,79,0.00,,,0.00,vanprod-2.5-rc3,2014-01-05 08:52:00,
2014-01-05 01:57:00,13.4,7.8,30.02,SSW,194,0.0,0.0,78,0.00,,,0.00,vanprod-2.5-rc3,2014-01-05 08:57:00,
2014-01-05 02:02:00,13.4,7.8,30.02,SSW,196,0.0,0.0,78,0.00,,,0.00,vanprod-2.5-rc3,2014-01-05 09:02:00,
2014-01-05 02:07:00,13.3,7.7,30.02,SSW,196,0.0,0.0,78,0.00,,,0.00,vanprod-2.5-rc3,2014-01-05 09:07:00,
2014-01-05 02:12:00,13.3,7.7,30.02,SSW,196,0.0,0.0,78,0.00,,,0.00,vanprod-2.5-rc3,2014-01-05 09:12:00,
2014-01-05 02:17:00,13.1,7.5,30.02,SSW,193,0.0,0.0,78,0.00,,,0.00,vanprod-2.5-rc3,2014-01-05 09:17:00,
2014-01-05 02:22:00,12.9,7.3,30.03,South,191,0.0,0.0,78,0.00,,,0.00,vanprod-2.5-rc3,2014-01-05 09:22:00,
2014-01-05 02:27:00,12.6,7.1,30.03,East,91,0.0,0.0,78,0.00,,,0.00,vanprod-2.5-rc3,2014-01-05 09:27:00,
2014-01-05 02:32:00,12.4,6.9,30.02,East,92,0.0,0.0,78,0.00,,,0.00,vanprod-2.5-rc3,2014-01-05 09:32:00,
2014-01-05 02:37:00,12.3,7.0,30.02,East,92,0.0,0.0,79,0.00,,,0.00,vanprod-2.5-rc3,2014-01-05 09:37:00,
2014-01-05 02:42:00,12.3,7.0,30.02,East,92,0.0,0.0,79,0.00,,,0.00,vanprod-2.5-rc3,2014-01-05 09:42:00,
2014-01-05 02:47:00,12.4,7.4,30.02,East,92,0.0,0.0,80,0.00,,,0.00,vanprod-2.5-rc3,2014-01-05 09:47:00,
2014-01-05 02:52:00,12.5,7.5,30.03,East,92,0.0,0.0,80,0.00,,,0.00,vanprod-2.5-rc3,2014-01-05 09:52:00,
2014-01-05 02:57:00,12.6,7.6,30.04,East,92,0.0,0.0,80,0.00,,,0.00,vanprod-2.5-rc3,2014-01-05 09:57:00,
2014-01-05 03:02:00,12.7,7.7,30.03,East,92,0.0,0.0,80,0.00,,,0.00,vanprod-2.5-rc3,2014-01-05 10:02:00,
2014-01-05 03:07:00,12.7,7.7,30.03,East,92,0.0,0.0,80,0.00,,,0.00,vanprod-2.5-rc3,2014-01-05 10:07:00,
2014-01-05 03:12:00,12.7,7.7,30.03,East,92,0.0,0.0,80,0.00,,,0.00,vanprod-2.5-rc3,2014-01-05 10:12:00,
2014-01-05 03:17:00,12.2,6.9,30.04,East,92,0.0,0.0,79,0.00,,,0.00,vanprod-2.5-rc3,2014-01-05 10:17:00,
2014-01-05 03:22:00,11.9,6.7,30.04,East,92,0.0,0.0,79,0.00,,,0.00,vanprod-2.5-rc3,2014-01-05 10:22:00,
2014-01-05 03:27:00,11.8,6.6,30.04,East,92,0.0,0.0,79,0.00,,,0.00,vanprod-2.5-rc3,2014-01-05 10:27:00,
2014-01-05 03:32:00,11.4,6.2,30.04,East,92,0.0,0.0,79,0.00,,,0.00,vanprod-2.5-rc3,2014-01-05 10:32:00,
2014-01-05 03:37:00,10.7,5.2,30.05,East,92,0.0,0.0,78,0.00,,,0.00,vanprod-2.5-rc3,2014-01-05 10:37:00,
2014-01-05 03:42:00,10.1,4.6,30.04,East,92,0.0,0.0,78,0.00,,,0.00,vanprod-2.5-rc3,2014-01-05 10:42:00,
2014-01-05 03:47:00,9.9,5.0,30.04,East,92,0.0,0.0,80,0.00,,,0.00,vanprod-2.5-rc3,2014-01-05 10:47:00,
2014-01-05 03:52:00,9.9,5.0,30.05,East,92,0.0,0.0,80,0.00,,,0.00,vanprod-2.5-rc3,2014-01-05 10:52:00,
2014-01-05 03:57:00,9.9,5.2,30.05,East,92,0.0,0.0,81,0.00,,,0.00,vanprod-2.5-rc3,2014-01-05 10:57:00,
2014-01-05 04:02:00,10.0,5.3,30.06,East,93,0.0,0.0,81,0.00,,,0.00,vanprod-2.5-rc3,2014-01-05 11:02:00,
2014-01-05 04:07:00,10.1,5.7,30.06,East,93,0.0,0.0,82,0.00,,,0.00,vanprod-2.5-rc3,2014-01-05 11:07:00,
2014-01-05 04:12:00,10.2,5.8,30.06,East,98,0.0,0.0,82,0.00,,,0.00,vanprod-2.5-rc3,2014-01-05 11:12:00,
2014-01-05 04:17:00,10.4,6.0,30.06,SE,138,0.0,0.0,82,0.00,,,0.00,vanprod-2.5-rc3,2014-01-05 11:17:00,
2014-01-05 04:22:00,10.4,6.0,30.06,South,191,0.0,0.0,82,0.00,,,0.00,vanprod-2.5-rc3,2014-01-05 11:22:00,
2014-01-05 04:27:00,10.5,6.1,30.05,SSW,192,0.0,0.0,82,0.00,,,0.00,vanprod-2.5-rc3,2014-01-05 11:27:00,
2014-01-05 04:32:00,10.5,6.1,30.05,SSW,192,0.0,0.0,82,0.00,,,0.00,vanprod-2.5-rc3,2014-01-05 11:32:00,
2014-01-05 04:37:00,10.5,6.1,30.05,SSW,192,0.0,0.0,82,0.00,,,0.00,vanprod-2.5-rc3,2014-01-05 11:37:00,
2014-01-05 04:42:00,10.6,6.5,30.05,SSW,192,0.0,0.0,83,0.00,,,0.00,vanprod-2.5-rc3,2014-01-05 11:42:00,
2014-01-05 04:47:00,10.4,6.0,30.06,SSW,192,0.0,0.0,82,0.00,,,0.00,vanprod-2.5-rc3,2014-01-05 11:47:00,
2014-01-05 04:52:00,10.3,5.9,30.06,South,188,0.0,0.0,82,0.00,,,0.00,vanprod-2.5-rc3,2014-01-05 11:52:00,
2014-01-05 04:57:00,10.1,5.7,30.06,South,189,0.0,0.0,82,0.00,,,0.00,vanprod-2.5-rc3,2014-01-05 11:57:00,
2014-01-05 05:02:00,9.9,5.5,30.05,South,191,0.0,0.0,82,0.00,,,0.00,vanprod-2.5-rc3,2014-01-05 12:02:00,
2014-01-05 05:07:00,10.0,5.9,30.05,South,187,0.0,0.0,83,0.00,,,0.00,vanprod-2.5-rc3,2014-01-05 12:07:00,
2014-01-05 05:12:00,10.4,6.3,30.05,SSW,202,4.0,7.0,83,0.00,,,0.00,vanprod-2.5-rc3,2014-01-05 12:12:00,
2014-01-05 05:17:00,10.8,6.9,30.06,SSW,197,2.0,2.0,84,0.00,,,0.00,vanprod-2.5-rc3,2014-01-05 12:17:00,
2014-01-05 05:22:00,10.8,6.9,30.06,SSW,192,1.0,1.0,84,0.00,,,0.00,vanprod-2.5-rc3,2014-01-05 12:22:00,
2014-01-05 05:27:00,10.7,6.8,30.06,SW,234,0.0,0.0,84,0.00,,,0.00,vanprod-2.5-rc3,2014-01-05 12:27:00,
2014-01-05 05:32:00,10.5,6.6,30.07,SSW,206,0.0,1.0,84,0.00,,,0.00,vanprod-2.5-rc3,2014-01-05 12:32:00,
2014-01-05 05:37:00,10.3,6.2,30.06,South,177,0.0,0.0,83,0.00,,,0.00,vanprod-2.5-rc3,2014-01-05 12:37:00,
2014-01-05 05:42:00,10.0,5.9,30.07,South,170,0.0,1.0,83,0.00,,,0.00,vanprod-2.5-rc3,2014-01-05 12:42:00,
2014-01-05 05:47:00,10.1,6.2,30.06,South,183,1.0,2.0,84,0.00,,,0.00,vanprod-2.5-rc3,2014-01-05 12:47:00,
2014-01-05 05:52:00,10.1,6.2,30.07,SSW,197,1.0,2.0,84,0.00,,,0.00,vanprod-2.5-rc3,2014-01-05 12:52:00,
2014-01-05 05:57:00,10.2,6.3,30.07,SW,225,0.0,0.0,84,0.00,,,0.00,vanprod-2.5-rc3,2014-01-05 12:57:00,
2014-01-05 06:02:00,10.3,6.4,30.08,SW,225,0.0,0.0,84,0.00,,,0.00,vanprod-2.5-rc3,2014-01-05 13:02:00,
2014-01-05 06:07:00,10.3,6.4,30.08,SW,225,0.0,0.0,84,0.00,,,0.00,vanprod-2.5-rc3,2014-01-05 13:07:00,
2014-01-05 06:12:00,10.4,6.5,30.08,SW,225,0.0,0.0,84,0.00,,,0.00,vanprod-2.5-rc3,2014-01-05 13:12:00,
2014-01-05 06:17:00,10.3,6.2,30.09,SW,225,0.0,0.0,83,0.00,,,0.00,vanprod-2.5-rc3,2014-01-05 13:17:00,
2014-01-05 06:22:00,10.1,6.0,30.09,SW,229,0.0,0.0,83,0.00,,,0.00,vanprod-2.5-rc3,2014-01-05 13:22:00,
2014-01-05 06:27:00,9.9,5.8,30.09,SW,229,0.0,0.0,83,0.00,,,0.00,vanprod-2.5-rc3,2014-01-05 13:27:00,
2014-01-05 06:32:00,9.9,5.8,30.10,SW,229,0.0,0.0,83,0.00,,,0.00,vanprod-2.5-rc3,2014-01-05 13:32:00,
2014-01-05 06:37:00,9.5,5.1,30.10,WNW,291,0.0,0.0,82,0.00,,,0.00,vanprod-2.5-rc3,2014-01-05 13:37:00,
2014-01-05 06:42:00,9.1,4.7,30.10,North,354,0.0,0.0,82,0.00,,,0.00,vanprod-2.5-rc3,2014-01-05 13:42:00,
2014-01-05 06:47:00,8.4,4.0,30.09,NNE,24,0.0,0.0,82,0.00,,,0.00,vanprod-2.5-rc3,2014-01-05 13:47:00,
2014-01-05 06:52:00,8.1,3.8,30.09,NNE,12,0.0,0.0,82,0.00,,,0.00,vanprod-2.5-rc3,2014-01-05 13:52:00,
2014-01-05 06:57:00,8.1,4.0,30.09,NNE,12,0.0,0.0,83,0.00,,,0.00,vanprod-2.5-rc3,2014-01-05 13:57:00,
2014-01-05 07:02:00,8.0,3.9,30.10,NNE,12,0.0,0.0,83,0.00,,,0.00,vanprod-2.5-rc3,2014-01-05 14:02:00,
2014-01-05 07:07:00,8.0,3.9,30.10,NNE,12,0.0,0.0,83,0.00,,,0.00,vanprod-2.5-rc3,2014-01-05 14:07:00,
2014-01-05 07:12:00,7.9,3.8,30.10,SSE,155,0.0,0.0,83,0.00,,,0.00,vanprod-2.5-rc3,2014-01-05 14:12:00,
2014-01-05 07:17:00,8.2,4.4,30.10,SW,219,3.0,3.0,84,0.00,,,0.00,vanprod-2.5-rc3,2014-01-05 14:17:00,
2014-01-05 07:22:00,8.6,4.5,30.09,SW,225,1.0,1.0,83,0.00,,,0.00,vanprod-2.5-rc3,2014-01-05 14:22:00,
2014-01-05 07:27:00,8.4,4.3,30.09,SW,225,0.0,0.0,83,0.00,,,0.00,vanprod-2.5-rc3,2014-01-05 14:27:00,
2014-01-05 07:32:00,8.1,3.8,30.11,SW,225,1.0,1.0,82,0.00,,,0.00,vanprod-2.5-rc3,2014-01-05 14:32:00,
2014-01-05 07:37:00,7.5,3.2,30.11,SW,225,0.0,1.0,82,0.00,,,0.00,vanprod-2.5-rc3,2014-01-05 14:37:00,
2014-01-05 07:42:00,7.4,3.1,30.12,SW,225,0.0,0.0,82,0.00,,,0.00,vanprod-2.5-rc3,2014-01-05 14:42:00,
2014-01-05 07:47:00,7.4,3.1,30.12,SW,225,0.0,0.0,82,0.00,,,0.00,vanprod-2.5-rc3,2014-01-05 14:47:00,
2014-01-05 07:52:00,7.4,3.1,30.12,SW,225,2.0,3.0,82,0.00,,,0.00,vanprod-2.5-rc3,2014-01-05 14:52:00,
2014-01-05 07:57:00,8.0,3.7,30.12,WSW,246,0.0,1.0,82,0.00,,,0.00,vanprod-2.5-rc3,2014-01-05 14:57:00,
2014-01-05 08:02:00,8.1,3.5,30.13,WNW,292,3.0,3.0,81,0.00,,,0.00,vanprod-2.5-rc3,2014-01-05 15:02:00,
2014-01-05 08:07:00,8.4,3.5,30.13,West,260,1.0,1.0,80,0.00,,,0.00,vanprod-2.5-rc3,2014-01-05 15:07:00,
2014-01-05 08:12:00,8.6,3.7,30.13,West,260,0.0,0.0,80,0.00,,,0.00,vanprod-2.5-rc3,2014-01-05 15:12:00,
2014-01-05 08:17:00,8.6,3.4,30.14,West,264,0.0,1.0,79,0.00,,,0.00,vanprod-2.5-rc3,2014-01-05 15:17:00,
2014-01-05 08:22:00,9.0,4.1,30.14,West,263,0.0,0.0,80,0.00,,,0.00,vanprod-2.5-rc3,2014-01-05 15:22:00,
2014-01-05 08:27:00,9.2,4.0,30.14,West,263,0.0,1.0,79,0.00,,,0.00,vanprod-2.5-rc3,2014-01-05 15:27:00,
2014-01-05 08:32:00,9.6,4.4,30.13,West,274,0.0,0.0,79,0.00,,,0.00,vanprod-2.5-rc3,2014-01-05 15:32:00,
2014-01-05 08:37:00,9.9,4.4,30.13,West,273,1.0,0.0,78,0.00,,,0.00,vanprod-2.5-rc3,2014-01-05 15:37:00,
2014-01-05 08:42:00,10.1,4.6,30.13,SW,224,3.0,0.0,78,0.00,,,0.00,vanprod-2.5-rc3,2014-01-05 15:42:00,
2014-01-05 08:47:00,10.5,4.7,30.14,SW,230,1.0,1.0,77,0.00,,,0.00,vanprod-2.5-rc3,2014-01-05 15:47:00,
2014-01-05 08:52:00,10.6,4.5,30.14,SW,229,3.0,3.0,76,0.00,,,0.00,vanprod-2.5-rc3,2014-01-05 15:52:00,
2014-01-05 08:57:00,10.7,4.6,30.14,WSW,243,1.0,0.0,76,0.00,,,0.00,vanprod-2.5-rc3,2014-01-05 15:57:00,
2014-01-05 09:02:00,10.7,4.4,30.15,SSW,205,0.0,0.0,75,0.00,,,0.00,vanprod-2.5-rc3,2014-01-05 16:02:00,
2014-01-05 09:07:00,10.7,4.4,30.15,South,191,3.0,3.0,75,0.00,,,0.00,vanprod-2.5-rc3,2014-01-05 16:07:00,
2014-01-05 09:12:00,11.2,5.1,30.15,SSW,211,5.0,5.0,76,0.00,,,0.00,vanprod-2.5-rc3,2014-01-05 16:12:00,
2014-01-05 09:17:00,11.8,5.4,30.15,SSW,206,0.0,1.0,75,0.00,,,0.00,vanprod-2.5-rc3,2014-01-05 16:17:00,
2014-01-05 09:22:00,12.1,5.4,30.14,SW,219,5.0,5.0,74,0.00,,,0.00,vanprod-2.5-rc3,2014-01-05 16:22:00,
2014-01-05 09:27:00,12.5,5.8,30.16,South,174,1.0,0.0,74,0.00,,,0.00,vanprod-2.5-rc3,2014-01-05 16:27:00,
2014-01-05 09:32:00,12.5,5.5,30.16,WNW,299,1.0,3.0,73,0.00,,,0.00,vanprod-2.5-rc3,2014-01-05 16:32:00,
2014-01-05 09:37:00,12.5,5.2,30.16,West,273,0.0,0.0,72,0.00,,,0.00,vanprod-2.5-rc3,2014-01-05 16:37:00,
2014-01-05 09:42:00,12.4,5.1,30.15,SW,236,1.0,2.0,72,0.00,,,0.00,vanprod-2.5-rc3,2014-01-05 16:42:00,
2014-01-05 09:47:00,12.5,5.2,30.16,South,189,0.0,0.0,72,0.00,,,0.00,vanprod-2.5-rc3,2014-01-05 16:47:00,
2014-01-05 09:52:00,12.5,5.2,30.16,SSW,211,0.0,0.0,72,0.00,,,0.00,vanprod-2.5-rc3,2014-01-05 16:52:00,
2014-01-05 09:57:00,12.7,5.4,30.16,South,188,0.0,0.0,72,0.00,,,0.00,vanprod-2.5-rc3,2014-01-05 16:57:00,
2014-01-05 10:02:00,12.8,5.2,30.18,SW,224,1.0,2.0,71,0.00,,,0.00,vanprod-2.5-rc3,2014-01-05 17:02:00,
2014-01-05 10:07:00,13.0,5.4,30.17,South,183,1.0,3.0,71,0.00,,,0.00,vanprod-2.5-rc3,2014-01-05 17:07:00,
2014-01-05 10:12:00,13.2,5.3,30.17,SSE,165,3.0,3.0,70,0.00,,,0.00,vanprod-2.5-rc3,2014-01-05 17:12:00,
2014-01-05 10:17:00,13.3,5.0,30.18,SSW,210,0.0,0.0,69,0.00,,,0.00,vanprod-2.5-rc3,2014-01-05 17:17:00,
2014-01-05 10:22:00,13.4,5.5,30.18,SW,225,2.0,2.0,70,0.00,,,0.00,vanprod-2.5-rc3,2014-01-05 17:22:00,
2014-01-05 10:27:00,14.1,5.5,30.17,SW,225,2.0,2.0,68,0.00,,,0.00,vanprod-2.5-rc3,2014-01-05 17:27:00,
2014-01-05 10:32:00,15.0,5.7,30.16,SSW,202,0.0,0.0,66,0.00,,,0.00,vanprod-2.5-rc3,2014-01-05 17:32:00,
2014-01-05 10:37:00,15.8,6.1,30.16,SSW,200,0.0,0.0,65,0.00,,,0.00,vanprod-2.5-rc3,2014-01-05 17:37:00,
2014-01-05 10:42:00,16.6,6.2,30.18,SSW,200,0.0,0.0,63,0.00,,,0.00,vanprod-2.5-rc3,2014-01-05 17:42:00,
2014-01-05 10:47:00,17.3,5.8,30.18,WSW,242,3.0,0.0,60,0.00,,,0.00,vanprod-2.5-rc3,2014-01-05 17:47:00,
2014-01-05 10:52:00,18.2,5.2,30.18,WSW,254,2.0,3.0,56,0.00,,,0.00,vanprod-2.5-rc3,2014-01-05 17:52:00,
2014-01-05 10:57:00,18.9,5.8,30.17,SW,227,2.0,2.0,56,0.00,,,0.00,vanprod-2.5-rc3,2014-01-05 17:57:00,
2014-01-05 11:02:00,19.3,6.2,30.18,West,265,4.0,4.0,56,0.00,,,0.00,vanprod-2.5-rc3,2014-01-05 18:02:00,
2014-01-05 11:07:00,19.7,5.4,30.16,NW,306,1.0,0.0,53,0.00,,,0.00,vanprod-2.5-rc3,2014-01-05 18:07:00,
2014-01-05 11:12:00,20.2,5.4,30.16,WNW,284,0.0,0.0,52,0.00,,,0.00,vanprod-2.5-rc3,2014-01-05 18:12:00,
2014-01-05 11:17:00,20.6,5.8,30.17,WNW,284,0.0,2.0,52,0.00,,,0.00,vanprod-2.5-rc3,2014-01-05 18:17:00,
2014-01-05 11:22:00,20.9,4.8,30.16,SW,216,2.0,2.0,49,0.00,,,0.00,vanprod-2.5-rc3,2014-01-05 18:22:00,
2014-01-05 11:27:00,21.3,5.1,30.16,North,349,14.0,14.0,49,0.00,,,0.00,vanprod-2.5-rc3,2014-01-05 18:27:00,
2014-01-05 11:32:00,21.2,5.0,30.16,NW,314,5.0,5.0,49,0.00,,,0.00,vanprod-2.5-rc3,2014-01-05 18:32:00,
2014-01-05 11:37:00,21.0,4.4,30.16,NNW,328,12.0,12.0,48,0.00,,,0.00,vanprod-2.5-rc3,2014-01-05 18:37:00,
2014-01-05 11:42:00,21.0,3.9,30.16,North,357,11.0,11.0,47,0.00,,,0.00,vanprod-2.5-rc3,2014-01-05 18:42:00,
2014-01-05 11:47:00,21.0,6.6,30.16,North,1,10.0,14.0,53,0.00,,,0.00,vanprod-2.5-rc3,2014-01-05 18:47:00,
2014-01-05 11:52:00,20.0,8.4,30.16,North,9,10.0,11.0,60,0.00,,,0.00,vanprod-2.5-rc3,2014-01-05 18:52:00,
2014-01-05 11:57:00,19.5,7.9,30.16,NNE,19,15.0,15.0,60,0.00,,,0.00,vanprod-2.5-rc3,2014-01-05 18:57:00,
2014-01-05 12:02:00,19.7,8.4,30.17,North,357,14.0,14.0,61,0.00,,,0.00,vanprod-2.5-rc3,2014-01-05 19:02:00,
2014-01-05 12:07:00,19.9,7.5,30.17,North,1,16.0,16.0,58,0.00,,,0.00,vanprod-2.5-rc3,2014-01-05 19:07:00,
2014-01-05 12:12:00,19.9,4.7,30.17,North,358,11.0,11.0,51,0.00,,,0.00,vanprod-2.5-rc3,2014-01-05 19:12:00,
2014-01-05 12:17:00,19.9,3.8,30.18,North,359,13.0,13.0,49,0.00,,,0.00,vanprod-2.5-rc3,2014-01-05 19:17:00,
2014-01-05 12:22:00,19.8,3.7,30.17,NNW,348,9.0,11.0,49,0.00,,,0.00,vanprod-2.5-rc3,2014-01-05 19:22:00,
2014-01-05 12:27:00,19.8,3.7,30.17,North,359,8.0,8.0,49,0.00,,,0.00,vanprod-2.5-rc3,2014-01-05 19:27:00,
2014-01-05 12:32:00,19.9,3.8,30.17,North,350,3.0,3.0,49,0.00,,,0.00,vanprod-2.5-rc3,2014-01-05 19:32:00,
2014-01-05 12:37:00,20.0,3.9,30.17,NNW,339,1.0,3.0,49,0.00,,,0.00,vanprod-2.5-rc3,2014-01-05 19:37:00,
2014-01-05 12:42:00,19.7,3.6,30.17,NNE,22,10.0,12.0,49,0.00,,,0.00,vanprod-2.5-rc3,2014-01-05 19:42:00,
2014-01-05 12:47:00,20.2,5.4,30.17,North,358,11.0,14.0,52,0.00,,,0.00,vanprod-2.5-rc3,2014-01-05 19:47:00,
2014-01-05 12:52:00,20.9,5.6,30.17,NNE,16,13.0,13.0,51,0.00,,,0.00,vanprod-2.5-rc3,2014-01-05 19:52:00,
2014-01-05 12:57:00,20.9,6.1,30.17,NNE,12,10.0,10.0,52,0.00,,,0.00,vanprod-2.5-rc3,2014-01-05 19:57:00,
2014-01-05 13:02:00,20.7,5.4,30.15,NE,41,6.0,9.0,51,0.00,,,0.00,vanprod-2.5-rc3,2014-01-05 20:02:00,
2014-01-05 13:07:00,20.7,5.9,30.15,ENE,58,2.0,0.0,52,0.00,,,0.00,vanprod-2.5-rc3,2014-01-05 20:07:00,
2014-01-05 13:12:00,20.5,5.3,30.16,NNW,341,12.0,12.0,51,0.00,,,0.00,vanprod-2.5-rc3,2014-01-05 20:12:00,
2014-01-05 13:17:00,20.2,4.5,30.17,North,8,1.0,2.0,50,0.00,,,0.00,vanprod-2.5-rc3,2014-01-05 20:17:00,
2014-01-05 13:22:00,20.4,5.2,30.17,NNE,28,5.0,5.0,51,0.00,,,0.00,vanprod-2.5-rc3,2014-01-05 20:22:00,
2014-01-05 13:27:00,20.4,4.7,30.17,NW,321,3.0,3.0,50,0.00,,,0.00,vanprod-2.5-rc3,2014-01-05 20:27:00,
2014-01-05 13:32:00,20.6,5.4,30.15,North,7,2.0,5.0,51,0.00,,,0.00,vanprod-2.5-rc3,2014-01-05 20:32:00,
2014-01-05 13:37:00,21.0,6.6,30.15,North,11,2.0,2.0,53,0.00,,,0.00,vanprod-2.5-rc3,2014-01-05 20:37:00,
2014-01-05 13:42:00,21.4,5.7,30.15,NNE,13,3.0,3.0,50,0.00,,,0.00,vanprod-2.5-rc3,2014-01-05 20:42:00,
2014-01-05 13:47:00,21.6,7.1,30.15,NE,35,11.0,11.0,53,0.00,,,0.00,vanprod-2.5-rc3,2014-01-05 20:47:00,
2014-01-05 13:52:00,21.4,6.9,30.15,North,357,8.0,8.0,53,0.00,,,0.00,vanprod-2.5-rc3,2014-01-05 20:52:00,
2014-01-05 13:57:00,21.4,7.4,30.15,NNE,33,9.0,11.0,54,0.00,,,0.00,vanprod-2.5-rc3,2014-01-05 20:57:00,
2014-01-05 14:02:00,21.1,7.5,30.15,NE,37,2.0,2.0,55,0.00,,,0.00,vanprod-2.5-rc3,2014-01-05 21:02:00,
2014-01-05 14:07:00,20.8,7.6,30.15,NNE,23,6.0,6.0,56,0.00,,,0.00,vanprod-2.5-rc3,2014-01-05 21:07:00,
2014-01-05 14:12:00,20.6,7.4,30.15,NNE,26,5.0,6.0,56,0.00,,,0.00,vanprod-2.5-rc3,2014-01-05 21:12:00,
2014-01-05 14:17:00,20.3,7.5,30.16,NNE,28,6.0,6.0,57,0.00,,,0.00,vanprod-2.5-rc3,2014-01-05 21:17:00,
2014-01-05 14:22:00,20.1,7.3,30.17,NE,46,2.0,3.0,57,0.00,,,0.00,vanprod-2.5-rc3,2014-01-05 21:22:00,
2014-01-05 14:27:00,20.0,7.2,30.16,NE,47,3.0,4.0,57,0.00,,,0.00,vanprod-2.5-rc3,2014-01-05 21:27:00,
2014-01-05 14:32:00,20.0,7.6,30.17,NE,46,2.0,2.0,58,0.00,,,0.00,vanprod-2.5-rc3,2014-01-05 21:32:00,
2014-01-05 14:37:00,20.2,7.8,30.17,NE,50,1.0,0.0,58,0.00,,,0.00,vanprod-2.5-rc3,2014-01-05 21:37:00,
2014-01-05 14:42:00,20.4,8.0,30.17,NE,42,0.0,0.0,58,0.00,,,0.00,vanprod-2.5-rc3,2014-01-05 21:42:00,
2014-01-05 14:47:00,20.7,7.9,30.16,NE,42,0.0,0.0,57,0.00,,,0.00,vanprod-2.5-rc3,2014-01-05 21:47:00,
2014-01-05 14:52:00,21.1,8.6,30.15,SSE,157,1.0,0.0,58,0.00,,,0.00,vanprod-2.5-rc3,2014-01-05 21:52:00,
2014-01-05 14:57:00,21.6,6.7,30.16,SSE,151,0.0,0.0,52,0.00,,,0.00,vanprod-2.5-rc3,2014-01-05 21:57:00,
2014-01-05 15:02:00,21.8,6.9,30.17,NNE,29,0.0,0.0,52,0.00,,,0.00,vanprod-2.5-rc3,2014-01-05 22:02:00,
2014-01-05 15:07:00,21.6,6.7,30.17,NE,47,0.0,2.0,52,0.00,,,0.00,vanprod-2.5-rc3,2014-01-05 22:07:00,
2014-01-05 15:12:00,21.5,7.4,30.17,ENE,61,0.0,0.0,54,0.00,,,0.00,vanprod-2.5-rc3,2014-01-05 22:12:00,
2014-01-05 15:17:00,21.5,6.6,30.18,NE,49,0.0,0.0,52,0.00,,,0.00,vanprod-2.5-rc3,2014-01-05 22:17:00,
2014-01-05 15:22:00,21.5,6.2,30.18,NE,42,0.0,0.0,51,0.00,,,0.00,vanprod-2.5-rc3,2014-01-05 22:22:00,
2014-01-05 15:27:00,21.6,7.1,30.18,NE,42,0.0,0.0,53,0.00,,,0.00,vanprod-2.5-rc3,2014-01-05 22:27:00,
2014-01-05 15:32:00,21.9,7.8,30.18,NE,42,0.0,0.0,54,0.00,,,0.00,vanprod-2.5-rc3,2014-01-05 22:32:00,
2014-01-05 15:37:00,22.1,8.4,30.18,NE,42,0.0,0.0,55,0.00,,,0.00,vanprod-2.5-rc3,2014-01-05 22:37:00,
2014-01-05 15:42:00,22.2,8.1,30.18,SSE,159,0.0,0.0,54,0.00,,,0.00,vanprod-2.5-rc3,2014-01-05 22:42:00,
2014-01-05 15:47:00,22.4,7.5,30.18,SSE,159,0.0,0.0,52,0.00,,,0.00,vanprod-2.5-rc3,2014-01-05 22:47:00,
2014-01-05 15:52:00,22.5,7.1,30.18,SSE,168,0.0,0.0,51,0.00,,,0.00,vanprod-2.5-rc3,2014-01-05 22:52:00,
2014-01-05 15:57:00,22.8,8.2,30.18,South,170,0.0,0.0,53,0.00,,,0.00,vanprod-2.5-rc3,2014-01-05 22:57:00,
2014-01-05 16:02:00,23.0,7.6,30.18,South,172,0.0,0.0,51,0.00,,,0.00,vanprod-2.5-rc3,2014-01-05 23:02:00,
2014-01-05 16:07:00,23.0,6.7,30.19,South,172,0.0,0.0,49,0.00,,,0.00,vanprod-2.5-rc3,2014-01-05 23:07:00,
2014-01-05 16:12:00,22.9,6.2,30.19,South,172,0.0,0.0,48,0.00,,,0.00,vanprod-2.5-rc3,2014-01-05 23:12:00,
2014-01-05 16:17:00,22.5,6.7,30.19,ESE,115,0.0,0.0,50,0.00,,,0.00,vanprod-2.5-rc3,2014-01-05 23:17:00,
2014-01-05 16:22:00,22.0,6.7,30.19,NE,34,0.0,0.0,51,0.00,,,0.00,vanprod-2.5-rc3,2014-01-05 23:22:00,
2014-01-05 16:27:00,21.5,6.2,30.20,NE,48,0.0,0.0,51,0.00,,,0.00,vanprod-2.5-rc3,2014-01-05 23:27:00,
2014-01-05 16:32:00,21.3,6.8,30.19,NE,48,0.0,0.0,53,0.00,,,0.00,vanprod-2.5-rc3,2014-01-05 23:32:00,
2014-01-05 16:37:00,21.1,6.2,30.19,ENE,58,0.0,0.0,52,0.00,,,0.00,vanprod-2.5-rc3,2014-01-05 23:37:00,
2014-01-05 16:42:00,20.9,6.1,30.19,East,95,3.0,0.0,52,0.00,,,0.00,vanprod-2.5-rc3,2014-01-05 23:42:00,
2014-01-05 16:47:00,20.9,5.6,30.20,East,88,0.0,0.0,51,0.00,,,0.00,vanprod-2.5-rc3,2014-01-05 23:47:00,
2014-01-05 16:52:00,20.9,5.2,30.20,East,88,0.0,0.0,50,0.00,,,0.00,vanprod-2.5-rc3,2014-01-05 23:52:00,
2014-01-05 16:57:00,20.7,5.4,30.20,East,88,0.0,0.0,51,0.00,,,0.00,vanprod-2.5-rc3,2014-01-05 23:57:00,
2014-01-05 17:02:00,20.5,6.9,30.21,East,89,0.0,0.0,55,0.00,,,0.00,vanprod-2.5-rc3,2014-01-06 00:02:00,
2014-01-05 17:07:00,20.1,5.3,30.21,East,90,0.0,0.0,52,0.00,,,0.00,vanprod-2.5-rc3,2014-01-06 00:07:00,
2014-01-05 17:12:00,19.7,5.4,30.21,South,179,0.0,0.0,53,0.00,,,0.00,vanprod-2.5-rc3,2014-01-06 00:12:00,
2014-01-05 17:17:00,19.2,5.3,30.23,South,178,0.0,0.0,54,0.00,,,0.00,vanprod-2.5-rc3,2014-01-06 00:17:00,
2014-01-05 17:22:00,18.7,4.8,30.21,South,178,0.0,0.0,54,0.00,,,0.00,vanprod-2.5-rc3,2014-01-06 00:22:00,
2014-01-05 17:27:00,18.1,4.7,30.20,South,183,1.0,2.0,55,0.00,,,0.00,vanprod-2.5-rc3,2014-01-06 00:27:00,
2014-01-05 17:32:00,17.5,4.9,30.24,SSW,194,4.0,4.0,57,0.00,,,0.00,vanprod-2.5-rc3,2014-01-06 00:32:00,
2014-01-05 17:37:00,17.7,4.7,30.22,SW,222,7.0,7.0,56,0.00,,,0.00,vanprod-2.5-rc3,2014-01-06 00:37:00,
2014-01-05 17:42:00,17.9,4.1,30.22,SW,234,0.0,0.0,54,0.00,,,0.00,vanprod-2.5-rc3,2014-01-06 00:42:00,
2014-01-05 17:47:00,18.0,3.8,30.22,SW,225,1.0,0.0,53,0.00,,,0.00,vanprod-2.5-rc3,2014-01-06 00:47:00,
2014-01-05 17:52:00,18.8,3.7,30.22,WSW,257,14.0,14.0,51,0.00,,,0.00,vanprod-2.5-rc3,2014-01-06 00:52:00,
2014-01-05 17:57:00,19.7,3.2,30.23,SW,225,1.0,1.0,48,0.00,,,0.00,vanprod-2.5-rc3,2014-01-06 00:57:00,
2014-01-05 18:02:00,19.7,3.6,30.22,South,191,1.0,0.0,49,0.00,,,0.00,vanprod-2.5-rc3,2014-01-06 01:02:00,
2014-01-05 18:07:00,19.0,3.4,30.23,SSW,204,1.0,1.0,50,0.00,,,0.00,vanprod-2.5-rc3,2014-01-06 01:07:00,
2014-01-05 18:12:00,18.6,3.5,30.23,SSW,213,2.0,2.0,51,0.00,,,0.00,vanprod-2.5-rc3,2014-01-06 01:12:00,
2014-01-05 18:17:00,18.8,3.3,30.23,SSW,208,3.0,3.0,50,0.00,,,0.00,vanprod-2.5-rc3,2014-01-06 01:17:00,
2014-01-05 18:22:00,19.2,3.2,30.23,SSW,207,1.0,2.0,49,0.00,,,0.00,vanprod-2.5-rc3,2014-01-06 01:22:00,
2014-01-05 18:27:00,19.3,3.3,30.23,South,186,1.0,1.0,49,0.00,,,0.00,vanprod-2.5-rc3,2014-01-06 01:27:00,
2014-01-05 18:32:00,19.2,3.2,30.24,SSW,202,0.0,0.0,49,0.00,,,0.00,vanprod-2.5-rc3,2014-01-06 01:32:00,
2014-01-05 18:37:00,19.0,2.6,30.24,SSW,202,0.0,0.0,48,0.00,,,0.00,vanprod-2.5-rc3,2014-01-06 01:37:00,
2014-01-05 18:42:00,18.8,2.8,30.24,WSW,248,0.0,0.0,49,0.00,,,0.00,vanprod-2.5-rc3,2014-01-06 01:42:00,
2014-01-05 18:47:00,18.5,2.5,30.24,SW,230,0.0,0.0,49,0.00,,,0.00,vanprod-2.5-rc3,2014-01-06 01:47:00,
2014-01-05 18:52:00,17.9,2.4,30.24,SSW,203,0.0,0.0,50,0.00,,,0.00,vanprod-2.5-rc3,2014-01-06 01:52:00,
2014-01-05 18:57:00,17.1,2.1,30.23,South,188,0.0,0.0,51,0.00,,,0.00,vanprod-2.5-rc3,2014-01-06 01:57:00,
2014-01-05 19:02:00,16.3,2.2,30.24,South,189,0.0,0.0,53,0.00,,,0.00,vanprod-2.5-rc3,2014-01-06 02:02:00,
2014-01-05 19:07:00,15.7,2.0,30.24,SSW,198,0.0,0.0,54,0.00,,,0.00,vanprod-2.5-rc3,2014-01-06 02:07:00,
2014-01-05 19:12:00,15.4,1.7,30.25,SSW,200,0.0,0.0,54,0.00,,,0.00,vanprod-2.5-rc3,2014-01-06 02:12:00,
2014-01-05 19:17:00,15.0,1.8,30.25,SSW,196,0.0,0.0,55,0.00,,,0.00,vanprod-2.5-rc3,2014-01-06 02:17:00,
2014-01-05 19:22:00,14.6,1.8,30.25,South,186,0.0,0.0,56,0.00,,,0.00,vanprod-2.5-rc3,2014-01-06 02:22:00,
2014-01-05 19:27:00,14.3,1.9,30.25,South,188,0.0,0.0,57,0.00,,,0.00,vanprod-2.5-rc3,2014-01-06 02:27:00,
2014-01-05 19:32:00,14.2,1.8,30.25,South,188,0.0,0.0,57,0.00,,,0.00,vanprod-2.5-rc3,2014-01-06 02:32:00,
2014-01-05 19:37:00,14.1,1.7,30.26,South,188,0.0,0.0,57,0.00,,,0.00,vanprod-2.5-rc3,2014-01-06 02:37:00,
2014-01-05 19:42:00,13.6,0.8,30.26,South,184,0.0,0.0,56,0.00,,,0.00,vanprod-2.5-rc3,2014-01-06 02:42:00,
2014-01-05 19:47:00,13.0,1.4,30.25,South,186,0.0,0.0,59,0.00,,,0.00,vanprod-2.5-rc3,2014-01-06 02:47:00,
2014-01-05 19:52:00,12.9,1.3,30.25,SSW,193,0.0,0.0,59,0.00,,,0.00,vanprod-2.5-rc3,2014-01-06 02:52:00,
2014-01-05 19:57:00,13.0,1.7,30.25,South,187,0.0,0.0,60,0.00,,,0.00,vanprod-2.5-rc3,2014-01-06 02:57:00,
2014-01-05 20:02:00,13.2,1.9,30.25,SSW,193,0.0,0.0,60,0.00,,,0.00,vanprod-2.5-rc3,2014-01-06 03:02:00,
2014-01-05 20:07:00,13.3,1.7,30.25,SSW,194,0.0,0.0,59,0.00,,,0.00,vanprod-2.5-rc3,2014-01-06 03:07:00,
2014-01-05 20:12:00,12.5,0.2,30.26,ESE,113,0.0,0.0,57,0.00,,,0.00,vanprod-2.5-rc3,2014-01-06 03:12:00,
2014-01-05 20:17:00,10.9,0.1,30.27,East,96,0.0,0.0,61,0.00,,,0.00,vanprod-2.5-rc3,2014-01-06 03:17:00,
2014-01-05 20:22:00,10.7,0.3,30.27,East,96,0.0,0.0,62,0.00,,,0.00,vanprod-2.5-rc3,2014-01-06 03:22:00,
2014-01-05 20:27:00,10.4,0.3,30.26,East,96,0.0,0.0,63,0.00,,,0.00,vanprod-2.5-rc3,2014-01-06 03:27:00,
2014-01-05 20:32:00,10.3,-0.1,30.26,East,96,0.0,0.0,62,0.00,,,0.00,vanprod-2.5-rc3,2014-01-06 03:32:00,
2014-01-05 20:37:00,10.3,-0.1,30.26,East,97,0.0,0.0,62,0.00,,,0.00,vanprod-2.5-rc3,2014-01-06 03:37:00,
2014-01-05 20:42:00,10.3,0.2,30.26,East,97,0.0,0.0,63,0.00,,,0.00,vanprod-2.5-rc3,2014-01-06 03:42:00,
2014-01-05 20:47:00,10.4,0.6,30.26,East,98,0.0,0.0,64,0.00,,,0.00,vanprod-2.5-rc3,2014-01-06 03:47:00,
2014-01-05 20:52:00,10.7,0.9,30.27,East,98,0.0,0.0,64,0.00,,,0.00,vanprod-2.5-rc3,2014-01-06 03:52:00,
2014-01-05 20:57:00,10.9,1.1,30.28,East,97,0.0,0.0,64,0.00,,,0.00,vanprod-2.5-rc3,2014-01-06 03:57:00,
2014-01-05 21:02:00,11.3,1.5,30.27,ESE,103,0.0,0.0,64,0.00,,,0.00,vanprod-2.5-rc3,2014-01-06 04:02:00,
2014-01-05 21:07:00,11.7,1.6,30.27,ESE,103,0.0,0.0,63,0.00,,,0.00,vanprod-2.5-rc3,2014-01-06 04:07:00,
2014-01-05 21:12:00,11.6,0.8,30.27,ESE,107,0.0,0.0,61,0.00,,,0.00,vanprod-2.5-rc3,2014-01-06 04:12:00,
2014-01-05 21:17:00,11.1,0.3,30.27,SSE,155,0.0,0.0,61,0.00,,,0.00,vanprod-2.5-rc3,2014-01-06 04:17:00,
2014-01-05 21:22:00,10.6,0.5,30.28,South,179,0.0,0.0,63,0.00,,,0.00,vanprod-2.5-rc3,2014-01-06 04:22:00,
2014-01-05 21:27:00,10.3,0.6,30.29,South,179,0.0,0.0,64,0.00,,,0.00,vanprod-2.5-rc3,2014-01-06 04:27:00,
2014-01-05 21:32:00,10.2,0.8,30.29,East,79,0.0,0.0,65,0.00,,,0.00,vanprod-2.5-rc3,2014-01-06 04:32:00,
2014-01-05 21:37:00,9.5,0.1,30.29,East,80,0.0,0.0,65,0.00,,,0.00,vanprod-2.5-rc3,2014-01-06 04:37:00,
2014-01-05 21:42:00,8.8,-0.5,30.29,ENE,76,0.0,0.0,65,0.00,,,0.00,vanprod-2.5-rc3,2014-01-06 04:42:00,
2014-01-05 21:47:00,8.6,0.2,30.30,ENE,76,0.0,0.0,68,0.00,,,0.00,vanprod-2.5-rc3,2014-01-06 04:47:00,
2014-01-05 21:52:00,8.5,-0.2,30.30,ENE,78,0.0,0.0,67,0.00,,,0.00,vanprod-2.5-rc3,2014-01-06 04:52:00,
2014-01-05 21:57:00,8.5,0.4,30.30,ENE,78,0.0,0.0,69,0.00,,,0.00,vanprod-2.5-rc3,2014-01-06 04:57:00,
2014-01-05 22:01:00,8.5,0.1,30.28,ENE,78,0.0,0.0,68,0.00,,,0.00,vanprod-2.5-rc3,2014-01-06 05:01:00,
2014-01-05 22:02:00,8.5,0.1,30.28,ENE,78,0.0,0.0,68,0.00,,,0.00,vanprod-2.5-rc3,2014-01-06 05:02:00,
2014-01-05 22:03:00,8.5,0.1,30.28,ENE,78,0.0,0.0,68,0.00,,,0.00,vanprod-2.5-rc3,2014-01-06 05:03:00,
2014-01-05 22:08:00,8.4,0.0,30.29,ENE,78,0.0,0.0,68,0.00,,,0.00,vanprod-2.5-rc3,2014-01-06 05:08:00,
2014-01-05 22:13:00,8.4,0.0,30.29,ENE,78,0.0,0.0,68,0.00,,,0.00,vanprod-2.5-rc3,2014-01-06 05:13:00,
2014-01-05 22:18:00,8.5,0.1,30.28,East,84,0.0,0.0,68,0.00,,,0.00,vanprod-2.5-rc3,2014-01-06 05:18:00,
2014-01-05 22:23:00,8.6,-0.1,30.28,East,85,0.0,0.0,67,0.00,,,0.00,vanprod-2.5-rc3,2014-01-06 05:23:00,
2014-01-05 22:28:00,8.4,-0.6,30.30,East,85,0.0,0.0,66,0.00,,,0.00,vanprod-2.5-rc3,2014-01-06 05:28:00,
2014-01-05 22:33:00,7.7,-1.6,30.30,East,84,0.0,0.0,65,0.00,,,0.00,vanprod-2.5-rc3,2014-01-06 05:33:00,
2014-01-05 22:38:00,6.7,-2.6,30.30,East,83,0.0,0.0,65,0.00,,,0.00,vanprod-2.5-rc3,2014-01-06 05:38:00,
2014-01-05 22:43:00,6.1,-2.5,30.29,East,83,0.0,0.0,67,0.00,,,0.00,vanprod-2.5-rc3,2014-01-06 05:43:00,
2014-01-05 22:48:00,5.8,-2.2,30.28,East,84,0.0,0.0,69,0.00,,,0.00,vanprod-2.5-rc3,2014-01-06 05:48:00,
2014-01-05 22:53:00,5.9,-1.8,30.28,East,84,0.0,0.0,70,0.00,,,0.00,vanprod-2.5-rc3,2014-01-06 05:53:00,
2014-01-05 22:58:00,6.0,-1.7,30.28,East,84,0.0,0.0,70,0.00,,,0.00,vanprod-2.5-rc3,2014-01-06 05:58:00,
2014-01-05 23:03:00,5.8,-2.2,30.28,East,83,0.0,0.0,69,0.00,,,0.00,vanprod-2.5-rc3,2014-01-06 06:03:00,
2014-01-05 23:08:00,5.3,-2.9,30.28,East,83,0.0,0.0,68,0.00,,,0.00,vanprod-2.5-rc3,2014-01-06 06:08:00,
2014-01-05 23:13:00,4.8,-3.1,30.28,East,83,0.0,0.0,69,0.00,,,0.00,vanprod-2.5-rc3,2014-01-06 06:13:00,
2014-01-05 23:18:00,5.1,-1.9,30.28,East,83,0.0,0.0,72,0.00,,,0.00,vanprod-2.5-rc3,2014-01-06 06:18:00,
2014-01-05 23:23:00,5.5,-1.6,30.29,East,83,0.0,0.0,72,0.00,,,0.00,vanprod-2.5-rc3,2014-01-06 06:23:00,
2014-01-05 23:28:00,5.3,-2.3,30.29,East,84,0.0,0.0,70,0.00,,,0.00,vanprod-2.5-rc3,2014-01-06 06:28:00,
2014-01-05 23:33:00,5.1,-2.5,30.29,East,84,0.0,0.0,70,0.00,,,0.00,vanprod-2.5-rc3,2014-01-06 06:33:00,
2014-01-05 23:38:00,4.7,-2.9,30.29,East,84,0.0,0.0,70,0.00,,,0.00,vanprod-2.5-rc3,2014-01-06 06:38:00,
2014-01-05 23:43:00,4.3,-3.3,30.30,East,84,0.0,0.0,70,0.00,,,0.00,vanprod-2.5-rc3,2014-01-06 06:43:00,
2014-01-05 23:48:00,3.9,-3.4,30.30,East,84,0.0,0.0,71,0.00,,,0.00,vanprod-2.5-rc3,2014-01-06 06:48:00,
2014-01-05 23:53:00,3.8,-3.2,30.30,East,84,0.0,0.0,72,0.00,,,0.00,vanprod-2.5-rc3,2014-01-06 06:53:00,
2014-01-05 23:58:00,3.6,-3.7,30.30,East,84,0.0,0.0,71,0.00,,,0.00,vanprod-2.5-rc3,2014-01-06 06:58:00,